SWA2303 KHOU-KBWI

Flight info

Callsign SWA2303
Flight time 2h 39m
Altitude 35000
Route ELOCO6 LLA HRV Q56 KELLN Q58 PEETT THHMP RAVNN8
Aircraft B738/M-SDE2E3FGHIRWXY/LB1

Departure

Time 2026-04-29 16:00
Airport William P. Hobby Airport (KHOU)

Arrival

Time 2026-04-29 18:39
Airport Baltimore/Washington International Thurgood Marshall Airport (KBWI)
Time Latitude Longitude Altitude Speed Heading
2026-04-29 15:27 29.65279 -95.27882 51 ft 0 kts 156°
2026-04-29 15:50 29.65288 -95.27887 49 ft 4 kts 157°
2026-04-29 15:51 29.65312 -95.27896 47 ft 4 kts 186°
2026-04-29 15:51 29.65332 -95.27883 48 ft 4 kts 240°
2026-04-29 15:51 29.65337 -95.27873 46 ft 1 kts 249°
2026-04-29 15:54 29.65333 -95.27883 51 ft 5 kts 249°
2026-04-29 15:55 29.65307 -95.27947 48 ft 11 kts 232°
2026-04-29 15:55 29.65246 -95.27982 48 ft 10 kts 163°
2026-04-29 15:55 29.65192 -95.27929 48 ft 10 kts 135°
2026-04-29 15:55 29.65146 -95.27870 48 ft 10 kts 117°
2026-04-29 15:56 29.65142 -95.27794 51 ft 10 kts 89°
2026-04-29 15:56 29.65143 -95.27719 51 ft 9 kts 89°
2026-04-29 15:56 29.65144 -95.27645 51 ft 9 kts 89°
2026-04-29 15:56 29.65145 -95.27565 51 ft 13 kts 89°
2026-04-29 15:57 29.65148 -95.27443 51 ft 16 kts 87°
2026-04-29 15:57 29.65209 -95.27344 50 ft 16 kts 44°
2026-04-29 15:57 29.65308 -95.27235 50 ft 23 kts 44°
2026-04-29 15:57 29.65422 -95.27109 51 ft 22 kts 44°
2026-04-29 15:58 29.65484 -95.27026 51 ft 11 kts 71°
2026-04-29 15:58 29.65473 -95.26959 50 ft 5 kts 123°
2026-04-29 15:58 29.65470 -95.26956 47 ft 0 kts 125°
2026-04-29 15:59 29.65468 -95.26952 46 ft 3 kts 127°
2026-04-29 15:59 29.65434 -95.26910 51 ft 10 kts 136°
2026-04-29 15:59 29.65394 -95.26897 49 ft 6 kts 208°
2026-04-29 15:59 29.65360 -95.26932 50 ft 10 kts 224°
2026-04-29 16:00 29.65153 -95.27160 51 ft 79 kts 224°
2026-04-29 16:00 29.64589 -95.27780 52 ft 145 kts 224°
2026-04-29 16:00 29.63791 -95.28673 587 ft 161 kts 222°
2026-04-29 16:00 29.62895 -95.29436 1666 ft 162 kts 194°
2026-04-29 16:01 29.61745 -95.29369 2471 ft 185 kts 162°
2026-04-29 16:01 29.60532 -95.28570 2723 ft 217 kts 150°
2026-04-29 16:01 29.59201 -95.27623 2897 ft 234 kts 150°
2026-04-29 16:01 29.58116 -95.26209 3363 ft 248 kts 115°
2026-04-29 16:02 29.57892 -95.24187 3619 ft 270 kts 89°
2026-04-29 16:02 29.58150 -95.21981 4176 ft 280 kts 83°
2026-04-29 16:02 29.58506 -95.19741 4916 ft 285 kts 82°
2026-04-29 16:02 29.58885 -95.17473 5516 ft 293 kts 81°
2026-04-29 16:03 29.59275 -95.15225 6237 ft 294 kts 81°
2026-04-29 16:03 29.59669 -95.12899 6866 ft 299 kts 81°
2026-04-29 16:03 29.60054 -95.10592 7532 ft 298 kts 80°
2026-04-29 16:03 29.60443 -95.08229 8107 ft 303 kts 80°
2026-04-29 16:04 29.60832 -95.05841 8812 ft 304 kts 79°
2026-04-29 16:04 29.61221 -95.03430 9436 ft 308 kts 79°
2026-04-29 16:04 29.61613 -95.01003 10124 ft 310 kts 78°
2026-04-29 16:04 29.62016 -94.98507 10438 ft 328 kts 79°
2026-04-29 16:05 29.62440 -94.95854 10594 ft 348 kts 79°
2026-04-29 16:05 29.62889 -94.93038 10738 ft 367 kts 79°
2026-04-29 16:05 29.63354 -94.90096 11018 ft 379 kts 79°
2026-04-29 16:05 29.63828 -94.87104 11578 ft 383 kts 79°
2026-04-29 16:06 29.64307 -94.84075 12167 ft 386 kts 79°
2026-04-29 16:06 29.64626 -94.82054 12551 ft 388 kts 79°
2026-04-29 16:06 29.65108 -94.78984 13108 ft 393 kts 79°
2026-04-29 16:06 29.65598 -94.75883 13679 ft 397 kts 79°
2026-04-29 16:07 29.66255 -94.71707 14406 ft 402 kts 79°
2026-04-29 16:07 29.66592 -94.69562 14757 ft 406 kts 79°
2026-04-29 16:07 29.67097 -94.66346 15267 ft 411 kts 78°
2026-04-29 16:07 29.67607 -94.63089 15802 ft 416 kts 78°
2026-04-29 16:08 29.68121 -94.59807 16328 ft 420 kts 78°
2026-04-29 16:08 29.68641 -94.56475 16850 ft 425 kts 78°
2026-04-29 16:08 29.69157 -94.53155 17358 ft 430 kts 78°
2026-04-29 16:08 29.69687 -94.49744 17888 ft 434 kts 78°
2026-04-29 16:09 29.70219 -94.46312 18367 ft 439 kts 78°
2026-04-29 16:09 29.70760 -94.42827 18827 ft 443 kts 78°
2026-04-29 16:09 29.71302 -94.39325 19304 ft 446 kts 78°
2026-04-29 16:09 29.71805 -94.35793 19787 ft 449 kts 82°
2026-04-29 16:10 29.71929 -94.32189 20220 ft 454 kts 92°
2026-04-29 16:10 29.71588 -94.28557 20664 ft 458 kts 98°
2026-04-29 16:10 29.71138 -94.24919 21103 ft 461 kts 98°
2026-04-29 16:10 29.70674 -94.21244 21521 ft 465 kts 98°
2026-04-29 16:11 29.70226 -94.17541 21940 ft 469 kts 97°
2026-04-29 16:11 29.69795 -94.13814 22347 ft 472 kts 97°
2026-04-29 16:11 29.69373 -94.10052 22747 ft 476 kts 97°
2026-04-29 16:11 29.68955 -94.06312 23142 ft 479 kts 97°
2026-04-29 16:12 29.68586 -94.02479 23522 ft 482 kts 92°
2026-04-29 16:12 29.68469 -93.98617 23834 ft 485 kts 89°
2026-04-29 16:12 29.68446 -93.94717 24157 ft 488 kts 88°
2026-04-29 16:12 29.68457 -93.90812 24483 ft 490 kts 88°
2026-04-29 16:13 29.68468 -93.86872 24803 ft 493 kts 88°
2026-04-29 16:13 29.68467 -93.82905 25122 ft 496 kts 88°
2026-04-29 16:13 29.68450 -93.78934 25423 ft 499 kts 89°
2026-04-29 16:13 29.68420 -93.74935 25744 ft 501 kts 89°
2026-04-29 16:14 29.68381 -93.70907 26050 ft 504 kts 89°
2026-04-29 16:14 29.68337 -93.66925 26348 ft 506 kts 89°
2026-04-29 16:14 29.68291 -93.62870 26639 ft 509 kts 89°
2026-04-29 16:14 29.68244 -93.58793 26932 ft 511 kts 89°
2026-04-29 16:15 29.68196 -93.54700 27228 ft 513 kts 89°
2026-04-29 16:15 29.68146 -93.50585 27515 ft 516 kts 89°
2026-04-29 16:15 29.68097 -93.46450 27789 ft 518 kts 88°
2026-04-29 16:15 29.68046 -93.42295 28065 ft 520 kts 88°
2026-04-29 16:16 29.67994 -93.38128 28328 ft 523 kts 88°
2026-04-29 16:16 29.67939 -93.33927 28582 ft 525 kts 88°
2026-04-29 16:16 29.67884 -93.29732 28845 ft 527 kts 88°
2026-04-29 16:16 29.67827 -93.25510 29102 ft 529 kts 88°
2026-04-29 16:17 29.67767 -93.21254 29351 ft 531 kts 88°
2026-04-29 16:17 29.67708 -93.17058 29586 ft 533 kts 88°
2026-04-29 16:17 29.67646 -93.12803 29827 ft 535 kts 88°
2026-04-29 16:17 29.67582 -93.08509 30068 ft 537 kts 88°
2026-04-29 16:18 29.67517 -93.04217 30291 ft 538 kts 88°
2026-04-29 16:18 29.67450 -92.99915 30548 ft 538 kts 88°
2026-04-29 16:18 29.67382 -92.95626 30864 ft 537 kts 88°
2026-04-29 16:18 29.67312 -92.91334 31185 ft 535 kts 88°
2026-04-29 16:19 29.67241 -92.87057 31451 ft 535 kts 88°
2026-04-29 16:19 29.67169 -92.82774 31722 ft 536 kts 88°
2026-04-29 16:19 29.67095 -92.78484 32030 ft 535 kts 87°
2026-04-29 16:19 29.67020 -92.74219 32318 ft 534 kts 87°
2026-04-29 16:20 29.66945 -92.69946 32582 ft 535 kts 87°
2026-04-29 16:20 29.66869 -92.65713 32860 ft 534 kts 87°
2026-04-29 16:20 29.66790 -92.61442 33146 ft 534 kts 87°
2026-04-29 16:20 29.66710 -92.57173 33431 ft 534 kts 87°
2026-04-29 16:21 29.66629 -92.52914 33693 ft 534 kts 87°
2026-04-29 16:21 29.66547 -92.48649 33958 ft 533 kts 87°
2026-04-29 16:21 29.66463 -92.44381 34215 ft 533 kts 87°
2026-04-29 16:21 29.66378 -92.40124 34464 ft 532 kts 87°
2026-04-29 16:22 29.66377 -92.35891 34682 ft 528 kts 81°
2026-04-29 16:22 29.66681 -92.31685 34898 ft 526 kts 79°
2026-04-29 16:22 29.67057 -92.27510 35129 ft 525 kts 78°
2026-04-29 16:22 29.67459 -92.23327 35384 ft 524 kts 78°
2026-04-29 16:23 29.67861 -92.19164 35609 ft 524 kts 78°
2026-04-29 16:23 29.68251 -92.14994 35812 ft 524 kts 78°
2026-04-29 16:23 29.68626 -92.10833 36002 ft 524 kts 79°
2026-04-29 16:23 29.68991 -92.06670 36205 ft 523 kts 79°
2026-04-29 16:24 29.69347 -92.02513 36419 ft 523 kts 79°
2026-04-29 16:24 29.69699 -91.98345 36630 ft 523 kts 79°
2026-04-29 16:24 29.70049 -91.94191 36839 ft 522 kts 79°
2026-04-29 16:24 29.70393 -91.90082 37038 ft 522 kts 79°
2026-04-29 16:25 29.70742 -91.85916 37023 ft 525 kts 79°
2026-04-29 16:25 29.71438 -91.77564 37036 ft 522 kts 79°
2026-04-29 16:26 29.72124 -91.69268 37040 ft 520 kts 79°
2026-04-29 16:26 29.72803 -91.61018 37047 ft 517 kts 79°
2026-04-29 16:27 29.73475 -91.52790 37059 ft 515 kts 79°
2026-04-29 16:27 29.74139 -91.44630 37071 ft 515 kts 79°
2026-04-29 16:28 29.74801 -91.36414 37072 ft 516 kts 79°
2026-04-29 16:28 29.75460 -91.28167 37073 ft 517 kts 79°
2026-04-29 16:29 29.76115 -91.19912 37062 ft 518 kts 79°
2026-04-29 16:29 29.76765 -91.11635 37055 ft 520 kts 79°
2026-04-29 16:30 29.77408 -91.03390 37045 ft 520 kts 79°
2026-04-29 16:30 29.78048 -90.95087 37032 ft 521 kts 79°
2026-04-29 16:31 29.78683 -90.86774 37036 ft 521 kts 79°
2026-04-29 16:31 29.79314 -90.78477 37031 ft 520 kts 79°
2026-04-29 16:32 29.79939 -90.70185 37034 ft 519 kts 80°
2026-04-29 16:32 29.80558 -90.61907 37039 ft 519 kts 80°
2026-04-29 16:33 29.81477 -90.49496 37041 ft 518 kts 80°
2026-04-29 16:33 29.82081 -90.41232 37051 ft 518 kts 80°
2026-04-29 16:34 29.82676 -90.33036 37036 ft 517 kts 80°
2026-04-29 16:34 29.83267 -90.24807 37047 ft 516 kts 80°
2026-04-29 16:35 29.83856 -90.16563 37054 ft 515 kts 80°
2026-04-29 16:35 29.84437 -90.08347 37069 ft 514 kts 80°
2026-04-29 16:36 29.85715 -90.00352 37062 ft 502 kts 64°
2026-04-29 16:36 29.88664 -89.93230 37067 ft 486 kts 50°
2026-04-29 16:37 29.92304 -89.86649 37068 ft 487 kts 50°
2026-04-29 16:37 29.95359 -89.81147 37066 ft 487 kts 50°
2026-04-29 16:38 29.99563 -89.73440 37047 ft 488 kts 50°
2026-04-29 16:38 30.03157 -89.66790 37045 ft 488 kts 51°
2026-04-29 16:39 30.06724 -89.60162 37041 ft 488 kts 51°
2026-04-29 16:39 30.10303 -89.53505 37046 ft 487 kts 51°
2026-04-29 16:40 30.13878 -89.46850 37050 ft 486 kts 51°
2026-04-29 16:40 30.17420 -89.40249 37055 ft 486 kts 51°
2026-04-29 16:41 30.20968 -89.33619 37056 ft 485 kts 51°
2026-04-29 16:41 30.24511 -89.26990 37047 ft 485 kts 52°
2026-04-29 16:42 30.28021 -89.20311 37055 ft 483 kts 51°
2026-04-29 16:42 30.31572 -89.13703 37066 ft 483 kts 51°
2026-04-29 16:43 30.35110 -89.07098 37064 ft 483 kts 51°
2026-04-29 16:43 30.38631 -89.00473 37068 ft 482 kts 51°
2026-04-29 16:44 30.42114 -88.93902 37047 ft 482 kts 51°
2026-04-29 16:44 30.45619 -88.87274 37050 ft 482 kts 51°
2026-04-29 16:45 30.49118 -88.80638 37052 ft 481 kts 51°
2026-04-29 16:45 30.52612 -88.74022 37068 ft 480 kts 51°
2026-04-29 16:46 30.56096 -88.67406 37078 ft 480 kts 51°
2026-04-29 16:46 30.59564 -88.60793 37088 ft 480 kts 51°
2026-04-29 16:47 30.63021 -88.54212 37073 ft 479 kts 51°
2026-04-29 16:47 30.66478 -88.47618 37064 ft 477 kts 51°
2026-04-29 16:48 30.69913 -88.41037 37082 ft 476 kts 51°
2026-04-29 16:48 30.73486 -88.34553 37096 ft 470 kts 43°
2026-04-29 16:49 30.77754 -88.28882 37081 ft 466 kts 40°
2026-04-29 16:49 30.82088 -88.23243 37078 ft 468 kts 41°
2026-04-29 16:50 30.86369 -88.17589 37074 ft 469 kts 41°
2026-04-29 16:50 30.90666 -88.11865 37063 ft 469 kts 41°
2026-04-29 16:51 30.94951 -88.06131 37052 ft 469 kts 41°
2026-04-29 16:51 30.99232 -88.00392 37053 ft 469 kts 41°
2026-04-29 16:52 31.03510 -87.94649 37052 ft 468 kts 41°
2026-04-29 16:52 31.07766 -87.88952 37055 ft 468 kts 41°
2026-04-29 16:53 31.12031 -87.83218 37051 ft 468 kts 42°
2026-04-29 16:53 31.16286 -87.77482 37056 ft 467 kts 42°
2026-04-29 16:54 31.20536 -87.71746 37052 ft 466 kts 42°
2026-04-29 16:54 31.24785 -87.66008 37055 ft 466 kts 42°
2026-04-29 16:55 31.29021 -87.60275 37050 ft 465 kts 42°
2026-04-29 16:55 31.32488 -87.55445 37054 ft 467 kts 45°
2026-04-29 16:56 31.36464 -87.49404 37060 ft 469 kts 46°
2026-04-29 16:56 31.40395 -87.43308 37062 ft 469 kts 46°
2026-04-29 16:57 31.44344 -87.37222 37061 ft 468 kts 46°
2026-04-29 16:57 31.48270 -87.31205 37070 ft 468 kts 46°
2026-04-29 16:58 31.52240 -87.25127 37069 ft 468 kts 46°
2026-04-29 16:58 31.56202 -87.19053 37064 ft 469 kts 46°
2026-04-29 16:59 31.60137 -87.13009 37062 ft 469 kts 46°
2026-04-29 16:59 31.64096 -87.06918 37074 ft 470 kts 46°
2026-04-29 17:00 31.68057 -87.00813 37056 ft 470 kts 46°
2026-04-29 17:00 31.72024 -86.94689 37062 ft 471 kts 46°
2026-04-29 17:01 31.75987 -86.88561 37055 ft 471 kts 47°
2026-04-29 17:01 31.79944 -86.82432 37050 ft 471 kts 46°
2026-04-29 17:02 31.83899 -86.76296 37047 ft 470 kts 47°
2026-04-29 17:02 31.87840 -86.70174 37050 ft 469 kts 47°
2026-04-29 17:03 31.91774 -86.64052 37048 ft 469 kts 47°
2026-04-29 17:03 31.95707 -86.57920 37046 ft 469 kts 47°
2026-04-29 17:04 31.99632 -86.51793 37054 ft 469 kts 47°
2026-04-29 17:04 32.03561 -86.45650 37056 ft 469 kts 47°
2026-04-29 17:05 32.07488 -86.39500 37052 ft 470 kts 47°
2026-04-29 17:05 32.11424 -86.33327 37048 ft 471 kts 47°
2026-04-29 17:06 32.15331 -86.27188 37046 ft 471 kts 47°
2026-04-29 17:06 32.19269 -86.20990 37046 ft 472 kts 47°
2026-04-29 17:07 32.23209 -86.14779 37041 ft 473 kts 47°
2026-04-29 17:07 32.27152 -86.08552 37032 ft 473 kts 47°
2026-04-29 17:08 32.31084 -86.02331 37029 ft 473 kts 47°
2026-04-29 17:08 32.35029 -85.96081 37024 ft 473 kts 47°
2026-04-29 17:09 32.38964 -85.89834 37026 ft 473 kts 47°
2026-04-29 17:09 32.42894 -85.83588 37019 ft 473 kts 47°
2026-04-29 17:10 32.46810 -85.77358 37023 ft 474 kts 47°
2026-04-29 17:10 32.50736 -85.71099 37023 ft 474 kts 47°
2026-04-29 17:11 32.54662 -85.64826 37047 ft 473 kts 47°
2026-04-29 17:11 32.57416 -85.60419 37047 ft 473 kts 47°
2026-04-29 17:12 32.61333 -85.54142 37059 ft 473 kts 47°
2026-04-29 17:12 32.64586 -85.48926 37055 ft 473 kts 47°
2026-04-29 17:13 32.69161 -85.41577 37060 ft 473 kts 47°
2026-04-29 17:13 32.73068 -85.35284 37046 ft 473 kts 47°
2026-04-29 17:14 32.76970 -85.28991 37040 ft 473 kts 48°
2026-04-29 17:14 32.80861 -85.22704 37020 ft 472 kts 48°
2026-04-29 17:15 32.84744 -85.16421 37029 ft 472 kts 48°
2026-04-29 17:15 32.88615 -85.10149 37035 ft 473 kts 48°
2026-04-29 17:16 32.92506 -85.03829 37039 ft 473 kts 48°
2026-04-29 17:16 32.96400 -84.97500 37039 ft 473 kts 48°
2026-04-29 17:17 33.00290 -84.91161 37034 ft 474 kts 48°
2026-04-29 17:17 33.04180 -84.84813 37029 ft 474 kts 48°
2026-04-29 17:18 33.08068 -84.78457 37024 ft 474 kts 48°
2026-04-29 17:18 33.11927 -84.72140 37004 ft 474 kts 48°
2026-04-29 17:19 33.15804 -84.65782 37027 ft 474 kts 48°
2026-04-29 17:19 33.19682 -84.59407 37016 ft 474 kts 48°
2026-04-29 17:20 33.23562 -84.53020 37008 ft 474 kts 48°
2026-04-29 17:20 33.27439 -84.46627 37010 ft 474 kts 48°
2026-04-29 17:21 33.31306 -84.40240 37049 ft 474 kts 49°
2026-04-29 17:21 33.34967 -84.34181 37052 ft 474 kts 49°
2026-04-29 17:22 33.38824 -84.27791 37044 ft 474 kts 49°
2026-04-29 17:22 33.42664 -84.21416 37044 ft 474 kts 49°
2026-04-29 17:23 33.46515 -84.15011 37040 ft 474 kts 49°
2026-04-29 17:23 33.50368 -84.08592 37018 ft 474 kts 49°
2026-04-29 17:24 33.54210 -84.02182 36985 ft 473 kts 49°
2026-04-29 17:24 33.58065 -83.95735 36999 ft 479 kts 47°
2026-04-29 17:25 33.61989 -83.89172 37004 ft 487 kts 47°
2026-04-29 17:25 33.65954 -83.82516 37001 ft 492 kts 47°
2026-04-29 17:26 33.69937 -83.75813 36988 ft 494 kts 47°
2026-04-29 17:26 33.73856 -83.69074 36990 ft 496 kts 50°
2026-04-29 17:27 33.77568 -83.62071 37011 ft 497 kts 51°
2026-04-29 17:27 33.81231 -83.55003 37006 ft 497 kts 51°
2026-04-29 17:28 33.84908 -83.47963 36991 ft 496 kts 51°
2026-04-29 17:28 33.88576 -83.40984 37001 ft 496 kts 51°
2026-04-29 17:29 33.92263 -83.33972 37001 ft 495 kts 51°
2026-04-29 17:29 33.95349 -83.28090 37003 ft 496 kts 51°
2026-04-29 17:30 33.99622 -83.19927 36997 ft 496 kts 51°
2026-04-29 17:30 34.03294 -83.12890 36996 ft 496 kts 51°
2026-04-29 17:31 34.06966 -83.05845 36984 ft 496 kts 51°
2026-04-29 17:31 34.10619 -82.98825 36988 ft 496 kts 51°
2026-04-29 17:32 34.14289 -82.91757 36990 ft 497 kts 51°
2026-04-29 17:32 34.17955 -82.84680 36990 ft 497 kts 51°
2026-04-29 17:33 34.21617 -82.77599 36996 ft 497 kts 52°
2026-04-29 17:33 34.25276 -82.70508 36988 ft 498 kts 52°
2026-04-29 17:34 34.28943 -82.63388 36977 ft 499 kts 52°
2026-04-29 17:34 34.32589 -82.56299 36980 ft 500 kts 52°
2026-04-29 17:35 34.38096 -82.45555 36975 ft 501 kts 52°
2026-04-29 17:36 34.41773 -82.38363 36979 ft 502 kts 52°
2026-04-29 17:36 34.45447 -82.31162 36986 ft 502 kts 52°
2026-04-29 17:37 34.49118 -82.23955 36971 ft 502 kts 52°
2026-04-29 17:37 34.52768 -82.16775 36976 ft 502 kts 52°
2026-04-29 17:38 34.56495 -82.09593 36978 ft 502 kts 52°
2026-04-29 17:38 34.60251 -82.02448 36979 ft 502 kts 52°
2026-04-29 17:39 34.63976 -81.95339 36979 ft 502 kts 52°
2026-04-29 17:39 34.67717 -81.88159 36979 ft 502 kts 52°
2026-04-29 17:40 34.71444 -81.80982 36961 ft 503 kts 52°
2026-04-29 17:40 34.75178 -81.73777 36961 ft 503 kts 52°
2026-04-29 17:41 34.78905 -81.66574 36958 ft 503 kts 52°
2026-04-29 17:41 34.82615 -81.59387 36958 ft 504 kts 52°
2026-04-29 17:42 34.86347 -81.52144 36958 ft 505 kts 52°
2026-04-29 17:42 34.90075 -81.44890 36962 ft 505 kts 53°
2026-04-29 17:43 34.93801 -81.37628 36978 ft 505 kts 53°
2026-04-29 17:43 34.97495 -81.30413 36958 ft 505 kts 53°
2026-04-29 17:44 35.01223 -81.23117 36968 ft 506 kts 53°
2026-04-29 17:44 35.04954 -81.15803 36978 ft 506 kts 53°
2026-04-29 17:45 35.08671 -81.08495 36974 ft 507 kts 53°
2026-04-29 17:45 35.12391 -81.01168 36965 ft 507 kts 53°
2026-04-29 17:46 35.15518 -80.95119 36968 ft 506 kts 51°
2026-04-29 17:46 35.19475 -80.88005 36979 ft 506 kts 50°
2026-04-29 17:47 35.24122 -80.79738 36974 ft 508 kts 51°
2026-04-29 17:47 35.27459 -80.73723 37000 ft 509 kts 51°
2026-04-29 17:48 35.31384 -80.66582 36981 ft 509 kts 51°
2026-04-29 17:48 35.35322 -80.59392 36991 ft 508 kts 51°
2026-04-29 17:49 35.39257 -80.52196 36983 ft 507 kts 51°
2026-04-29 17:49 35.43184 -80.45006 36980 ft 507 kts 51°
2026-04-29 17:50 35.47107 -80.37807 36977 ft 508 kts 51°
2026-04-29 17:50 35.51035 -80.30587 36985 ft 508 kts 52°
2026-04-29 17:51 35.54929 -80.23408 36983 ft 509 kts 52°
2026-04-29 17:51 35.58850 -80.16166 36977 ft 509 kts 52°
2026-04-29 17:52 35.62771 -80.08911 36971 ft 510 kts 52°
2026-04-29 17:52 35.66697 -80.01634 36959 ft 511 kts 52°
2026-04-29 17:53 35.70616 -79.94352 36973 ft 511 kts 52°
2026-04-29 17:53 35.74536 -79.87055 36965 ft 512 kts 52°
2026-04-29 17:54 35.78461 -79.79732 36950 ft 512 kts 52°
2026-04-29 17:54 35.82375 -79.72412 36955 ft 512 kts 52°
2026-04-29 17:55 35.86294 -79.65067 36954 ft 513 kts 52°
2026-04-29 17:55 35.90215 -79.57702 36955 ft 513 kts 52°
2026-04-29 17:56 35.94125 -79.50342 36964 ft 513 kts 52°
2026-04-29 17:56 35.98011 -79.43016 36968 ft 514 kts 52°
2026-04-29 17:57 36.01926 -79.35616 36959 ft 515 kts 53°
2026-04-29 17:57 36.05839 -79.28202 36954 ft 515 kts 53°
2026-04-29 17:58 36.09744 -79.20786 36954 ft 515 kts 53°
2026-04-29 17:58 36.13655 -79.13349 36966 ft 516 kts 53°
2026-04-29 17:59 36.17610 -79.05939 36977 ft 515 kts 51°
2026-04-29 17:59 36.21685 -78.98644 36987 ft 516 kts 51°
2026-04-29 18:00 36.25768 -78.91338 36981 ft 517 kts 51°
2026-04-29 18:00 36.29839 -78.83982 36976 ft 517 kts 51°
2026-04-29 18:01 36.33906 -78.76594 36966 ft 518 kts 51°
2026-04-29 18:01 36.37963 -78.69211 36960 ft 519 kts 51°
2026-04-29 18:02 36.42000 -78.61851 36961 ft 519 kts 51°
2026-04-29 18:02 36.46368 -78.54783 36953 ft 511 kts 39°
2026-04-29 18:03 36.51525 -78.48729 36961 ft 509 kts 37°
2026-04-29 18:03 36.56746 -78.42749 36957 ft 510 kts 37°
2026-04-29 18:04 36.61938 -78.36700 36957 ft 510 kts 38°
2026-04-29 18:04 36.67090 -78.30613 36953 ft 511 kts 38°
2026-04-29 18:05 36.72237 -78.24503 37002 ft 511 kts 38°
2026-04-29 18:05 36.77352 -78.18422 36998 ft 511 kts 38°
2026-04-29 18:06 36.82505 -78.12292 36993 ft 511 kts 38°
2026-04-29 18:06 36.87656 -78.06152 36991 ft 511 kts 38°
2026-04-29 18:07 36.92805 -78.00008 36949 ft 512 kts 38°
2026-04-29 18:07 36.97957 -77.93845 36948 ft 512 kts 38°
2026-04-29 18:08 37.03098 -77.87679 36948 ft 512 kts 38°
2026-04-29 18:08 37.08242 -77.81501 36898 ft 513 kts 38°
2026-04-29 18:08 37.10808 -77.78417 36320 ft 519 kts 38°
2026-04-29 18:09 37.13406 -77.75288 35718 ft 516 kts 38°
2026-04-29 18:09 37.16001 -77.72159 35043 ft 518 kts 38°
2026-04-29 18:09 37.18592 -77.69032 34336 ft 519 kts 38°
2026-04-29 18:09 37.21209 -77.65872 33530 ft 522 kts 38°
2026-04-29 18:10 37.23823 -77.62712 32730 ft 523 kts 38°
2026-04-29 18:10 37.26440 -77.59545 31946 ft 524 kts 38°
2026-04-29 18:10 37.29072 -77.56355 31145 ft 526 kts 38°
2026-04-29 18:10 37.31704 -77.53162 30297 ft 526 kts 38°
2026-04-29 18:11 37.34328 -77.49974 29396 ft 525 kts 38°
2026-04-29 18:11 37.36934 -77.46807 28639 ft 523 kts 38°
2026-04-29 18:11 37.39516 -77.43658 28023 ft 515 kts 38°
2026-04-29 18:11 37.42101 -77.40512 27304 ft 512 kts 38°
2026-04-29 18:12 37.44637 -77.37418 27033 ft 498 kts 38°
2026-04-29 18:12 37.47088 -77.34453 26818 ft 481 kts 35°
2026-04-29 18:12 37.49776 -77.32166 26582 ft 455 kts 19°
2026-04-29 18:12 37.52688 -77.30886 26052 ft 435 kts
2026-04-29 18:13 37.55646 -77.30204 25599 ft 427 kts
2026-04-29 18:13 37.58561 -77.29575 25115 ft 424 kts
2026-04-29 18:13 37.61457 -77.28935 24644 ft 420 kts
2026-04-29 18:13 37.64324 -77.28275 24171 ft 417 kts
2026-04-29 18:14 37.67171 -77.27599 23676 ft 415 kts
2026-04-29 18:14 37.69994 -77.26919 23176 ft 411 kts
2026-04-29 18:14 37.72765 -77.26238 23034 ft 411 kts
2026-04-29 18:14 37.75563 -77.25519 22984 ft 409 kts
2026-04-29 18:15 37.78338 -77.24792 22972 ft 407 kts
2026-04-29 18:15 37.81119 -77.24063 22978 ft 408 kts
2026-04-29 18:15 37.83906 -77.23336 22974 ft 409 kts
2026-04-29 18:15 37.86693 -77.22612 22968 ft 409 kts
2026-04-29 18:16 37.89477 -77.21889 22960 ft 409 kts
2026-04-29 18:16 37.92272 -77.21163 22703 ft 412 kts
2026-04-29 18:16 37.95076 -77.20434 22325 ft 409 kts
2026-04-29 18:16 37.97853 -77.19710 21986 ft 404 kts
2026-04-29 18:17 38.00596 -77.18994 21651 ft 401 kts
2026-04-29 18:17 38.03323 -77.18284 21319 ft 399 kts
2026-04-29 18:17 38.06003 -77.17585 20986 ft 398 kts
2026-04-29 18:17 38.08724 -77.16876 20516 ft 400 kts
2026-04-29 18:18 38.11452 -77.16165 20029 ft 400 kts
2026-04-29 18:18 38.14187 -77.15449 19545 ft 400 kts
2026-04-29 18:18 38.16907 -77.14737 19062 ft 397 kts
2026-04-29 18:18 38.19618 -77.14026 18560 ft 396 kts
2026-04-29 18:19 38.22305 -77.13322 18059 ft 395 kts
2026-04-29 18:19 38.24993 -77.12617 17569 ft 394 kts
2026-04-29 18:19 38.27666 -77.11914 17112 ft 391 kts
2026-04-29 18:19 38.30321 -77.11216 16675 ft 387 kts
2026-04-29 18:20 38.32952 -77.10524 16239 ft 383 kts
2026-04-29 18:20 38.35512 -77.09837 15823 ft 379 kts 10°
2026-04-29 18:20 38.37967 -77.08490 15381 ft 384 kts 30°
2026-04-29 18:20 38.40128 -77.06573 14994 ft 381 kts 33°
2026-04-29 18:21 38.42277 -77.04603 14572 ft 379 kts 33°
2026-04-29 18:21 38.44411 -77.02656 14142 ft 376 kts 33°
2026-04-29 18:21 38.46547 -77.00725 13719 ft 374 kts 33°
2026-04-29 18:21 38.48663 -76.98827 13259 ft 372 kts 33°
2026-04-29 18:22 38.50779 -76.96939 12810 ft 369 kts 33°
2026-04-29 18:22 38.52880 -76.95064 12369 ft 366 kts 33°
2026-04-29 18:22 38.54955 -76.93207 11954 ft 363 kts 35°
2026-04-29 18:22 38.56890 -76.91177 11636 ft 358 kts 41°
2026-04-29 18:23 38.58690 -76.88994 11292 ft 354 kts 44°
2026-04-29 18:23 38.60446 -76.86798 10970 ft 351 kts 44°
2026-04-29 18:23 38.62192 -76.84630 10571 ft 348 kts 44°
2026-04-29 18:23 38.63914 -76.82523 10089 ft 345 kts 43°
2026-04-29 18:24 38.65617 -76.80468 9985 ft 330 kts 43°
2026-04-29 18:24 38.67250 -76.78504 9943 ft 315 kts 43°
2026-04-29 18:24 38.68828 -76.76610 9715 ft 308 kts 43°
2026-04-29 18:24 38.70365 -76.74740 9296 ft 303 kts 47°
2026-04-29 18:25 38.71538 -76.72528 8913 ft 297 kts 62°
2026-04-29 18:25 38.72509 -76.70213 8495 ft 294 kts 63°
2026-04-29 18:25 38.73472 -76.67922 8200 ft 291 kts 62°
2026-04-29 18:25 38.74440 -76.65657 7919 ft 289 kts 62°
2026-04-29 18:26 38.75417 -76.63398 7639 ft 288 kts 62°
2026-04-29 18:26 38.76386 -76.61162 7355 ft 287 kts 62°
2026-04-29 18:26 38.77421 -76.58999 7070 ft 285 kts 48°
2026-04-29 18:26 38.79010 -76.57519 6807 ft 281 kts 21°
2026-04-29 18:27 38.80870 -76.56862 6571 ft 276 kts
2026-04-29 18:27 38.82766 -76.56375 6313 ft 279 kts
2026-04-29 18:27 38.84688 -76.55963 6023 ft 279 kts 359°
2026-04-29 18:27 38.86552 -76.56301 5893 ft 272 kts 343°
2026-04-29 18:28 38.88429 -76.56841 5711 ft 273 kts 344°
2026-04-29 18:28 38.90257 -76.57345 5560 ft 273 kts 344°
2026-04-29 18:28 38.92116 -76.57848 5411 ft 273 kts 345°
2026-04-29 18:28 38.93970 -76.58345 5246 ft 273 kts 345°
2026-04-29 18:29 38.95807 -76.58884 5085 ft 265 kts 336°
2026-04-29 18:29 38.96853 -76.59618 4973 ft 255 kts 316°
2026-04-29 18:29 38.98282 -76.61888 4815 ft 239 kts 296°
2026-04-29 18:29 38.99091 -76.63723 4675 ft 232 kts 294°
2026-04-29 18:30 38.99866 -76.65517 4538 ft 227 kts 294°
2026-04-29 18:30 39.00633 -76.67269 4412 ft 224 kts 294°
2026-04-29 18:30 39.01399 -76.69006 4303 ft 224 kts 294°
2026-04-29 18:30 39.02170 -76.70750 4182 ft 225 kts 295°
2026-04-29 18:31 39.02950 -76.72500 4068 ft 225 kts 295°
2026-04-29 18:31 39.03736 -76.74245 4038 ft 225 kts 295°
2026-04-29 18:31 39.04519 -76.75982 4036 ft 224 kts 295°
2026-04-29 18:31 39.05301 -76.77716 4026 ft 224 kts 295°
2026-04-29 18:32 39.05815 -76.78855 4030 ft 223 kts 295°
2026-04-29 18:32 39.07605 -76.82881 4020 ft 220 kts 288°
2026-04-29 18:32 39.08129 -76.84702 4025 ft 217 kts 283°
2026-04-29 18:33 39.08450 -76.85956 4032 ft 217 kts 282°
2026-04-29 18:33 39.09073 -76.88400 4035 ft 217 kts 283°
2026-04-29 18:33 39.09396 -76.89649 4039 ft 219 kts 283°
2026-04-29 18:33 39.10048 -76.92121 4033 ft 221 kts 289°
2026-04-29 18:34 39.10629 -76.93249 3988 ft 228 kts 310°
2026-04-29 18:34 39.11500 -76.94043 3828 ft 238 kts 333°
2026-04-29 18:34 39.13719 -76.94322 3536 ft 248 kts
2026-04-29 18:34 39.15416 -76.93958 3279 ft 246 kts 15°
2026-04-29 18:35 39.16913 -76.92997 3049 ft 236 kts 44°
2026-04-29 18:35 39.17932 -76.91463 2896 ft 218 kts 62°
2026-04-29 18:35 39.18377 -76.89703 2734 ft 200 kts 94°
2026-04-29 18:35 39.18412 -76.87969 2639 ft 192 kts 91°
2026-04-29 18:36 39.18480 -76.86278 2520 ft 185 kts 99°
2026-04-29 18:36 39.18392 -76.84612 2427 ft 189 kts 101°
2026-04-29 18:36 39.18287 -76.82929 2326 ft 186 kts 101°
2026-04-29 18:36 39.18186 -76.81272 2146 ft 183 kts 99°
2026-04-29 18:37 39.18097 -76.79686 1919 ft 169 kts 99°
2026-04-29 18:37 39.18014 -76.78259 1681 ft 152 kts 99°
2026-04-29 18:37 39.17937 -76.76947 1484 ft 145 kts 99°
2026-04-29 18:37 39.17860 -76.75662 1279 ft 141 kts 98°
2026-04-29 18:38 39.17789 -76.74396 1094 ft 143 kts 96°
2026-04-29 18:38 39.17714 -76.73116 868 ft 143 kts 97°
2026-04-29 18:38 39.17638 -76.71829 668 ft 144 kts 96°
2026-04-29 18:38 39.17571 -76.70563 460 ft 139 kts 96°
2026-04-29 18:39 39.17497 -76.69336 276 ft 136 kts 96°
2026-04-29 18:39 39.17429 -76.68142 160 ft 131 kts 97°
2026-04-29 18:39 39.17369 -76.67115 150 ft 88 kts 94°
2026-04-29 18:39 39.17340 -76.66587 151 ft 43 kts 94°
2026-04-29 18:40 39.17319 -76.66218 146 ft 40 kts 94°
2026-04-29 18:40 39.17306 -76.65958 144 ft 16 kts 81°
2026-04-29 18:40 39.17391 -76.65896 144 ft 15 kts 359°
2026-04-29 18:40 39.17444 -76.65991 146 ft 14 kts 274°
2026-04-29 18:41 39.17531 -76.66385 151 ft 18 kts 303°
2026-04-29 18:41 39.17572 -76.66506 153 ft 13 kts 251°
2026-04-29 18:42 39.17520 -76.66598 153 ft 13 kts 262°
2026-04-29 18:42 39.17526 -76.66737 154 ft 20 kts 274°
2026-04-29 18:42 39.17539 -76.66939 155 ft 20 kts 283°
2026-04-29 18:42 39.17631 -76.67079 155 ft 21 kts 323°
2026-04-29 18:43 39.17749 -76.67188 154 ft 21 kts 324°
2026-04-29 18:43 39.17863 -76.67294 153 ft 20 kts 324°
2026-04-29 18:43 39.17962 -76.67386 153 ft 13 kts 323°
2026-04-29 18:43 39.18010 -76.67395 154 ft 6 kts 39°
2026-04-29 18:44 39.18023 -76.67371 154 ft 1 kts 57°
2026-04-29 18:44 39.18032 -76.67354 155 ft 3 kts 56°
2026-04-29 18:44 39.18035 -76.67348 155 ft 0 kts 56°